Probability
5 4 4 4 4 4 4 4 3 3 2 1 1 1 1 1 1 2 3 2 1 0 0 0 0 0 0 0 0 0 0 0 0 0 1 2 2 2
8 7 5 5 5 6 5 4 4 4 3 2 2 2 2 2 2 2 2 1 0 0 0 0 0 0 0 0 0 0 0 0 0 0 0 1 1 1
12 10 8 7 7 8 7 6 6 5 5 4 4 4 3 3 3 3 2 1 0 0 0 0 0 0 0 0 0 0 0 0 0 0 0 0 0 0
14 13 10 8 9 10 10 9 8 8 7 6 6 5 4 4 3 3 3 2 1 0 0 0 0 0 0 0 0 0 0 0 0 0 0 0 0 0
16 14 11 9 9 11 12 12 11 10 8 7 6 6 6 5 4 4 5 4 3 1 1 0 0 0 0 0 0 0 0 0 0 0 0 0 0 0
15 14 11 8 8 11 12 12 11 11 9 7 6 6 6 6 5 5 5 4 3 2 2 1 0 0 0 0 0 0 0 0 0 0 0 0 0 0
11 11 10 8 7 8 9 8 8 9 8 6 5 5 6 6 5 5 4 2 1 1 2 1 0 0 0 0 0 0 0 0 0 0 0 0 0 0
8 9 9 7 5 5 5 4 4 5 6 6 6 6 6 6 5 4 2 1 0 0 1 1 0 0 0 0 0 0 0 0 0 0 0 0 0 0
8 8 8 6 4 3 2 2 2 2 3 5 5 6 5 5 5 4 2 0 0 0 0 0 0 0 0 0 0 0 0 0 0 0 0 0 0 0
6 6 6 6 4 3 3 3 3 2 2 2 3 3 3 4 4 3 2 1 0 0 0 0 0 0 0 0 0 0 0 0 0 0 0 0 0 0
5 5 5 5 3 2 4 5 5 4 3 1 1 1 1 1 2 2 2 2 1 0 0 0 0 0 0 0 0 0 0 0 0 0 0 0 0 0
6 6 5 4 2 2 4 6 6 6 4 2 1 1 0 0 0 0 2 3 2 1 0 0 0 0 0 0 0 0 0 0 0 0 0 0 0 0
7 7 5 3 1 1 3 4 5 5 4 2 2 1 0 0 0 0 1 2 2 1 0 0 0 0 0 0 0 0 0 0 0 0 0 0 0 0
9 8 6 2 0 0 1 2 2 2 1 1 1 1 0 0 0 0 0 1 1 1 0 0 0 0 0 0 0 0 0 0 0 0 0 0 0 0
10 8 5 2 1 0 0 1 1 1 1 0 0 0 0 0 0 0 0 0 0 0 0 0 0 0 0 0 0 0 0 0 0 0 0 0 0 0
8 7 4 2 1 2 1 1 2 3 2 1 0 0 0 0 0 0 0 0 0 0 0 0 0 0 0 0 0 0 0 0 0 0 0 0 0 0
6 6 5 3 3 3 3 2 3 3 3 2 1 0 0 0 0 0 0 0 0 0 0 0 0 0 0 0 0 0 0 0 0 0 0 0 0 0
5 7 7 6 5 4 3 3 3 3 3 3 2 1 0 0 0 0 0 0 0 0 0 0 0 0 0 0 0 0 0 0 0 0 0 0 0 0
5 6 7 7 6 5 4 3 3 3 3 3 3 2 1 0 0 0 0 0 0 0 0 0 0 0 0 0 0 0 0 0 0 0 0 0 0 0
4 5 7 6 5 4 3 3 3 3 3 3 3 3 2 1 0 0 0 0 0 0 0 0 0 0 0 0 0 0 0 0 0 0 0 0 0 0
3 3 5 5 4 3 3 3 3 3 3 3 3 3 3 2 1 0 0 0 0 0 0 0 0 0 0 0 0 0 0 0 0 0 0 0 0 0
1 1 2 3 3 3 3 3 3 3 3 3 3 3 3 3 1 0 0 0 0 0 0 0 0 0 0 0 0 0 0 0 0 0 0 0 1 1
0 0 0 1 3 3 3 3 3 3 3 3 3 3 3 3 2 1 0 0 0 0 0 0 0 0 0 0 0 0 0 0 0 0 0 0 1 0
Wind_Speed
3 3 3 3 3 3 3 3 3 2 3 3 2 1 1 2 3 2 2 3 3 3 3 3 3 3 3 3 3 3 3 3 3 3 4 5 5 6
3 3 3 3 3 3 3 3 3 3 3 2 2 2 2 3 2 2 2 3 3 3 3 3 2 2 2 2 2 2 2 2 2 3 3 4 4 4
4 4 4 3 3 3 3 3 3 3 4 3 2 2 2 3 3 2 2 2 2 2 2 2 1 2 1 1 2 2 2 2 2 2 3 3 3 4
5 4 4 3 3 3 3 3 3 3 3 4 2 2 3 3 2 3 2 2 2 2 2 1 1 2 2 2 2 2 2 2 2 2 3 3 3 4
5 5 4 4 4 3 3 3 3 3 3 3 3 2 2 2 2 2 2 2 2 1 1 1 1 2 2 2 3 3 3 3 3 3 3 3 3 3
4 4 4 5 5 5 4 4 3 2 2 3 3 2 2 2 1 2 2 2 2 2 1 0 0 1 1 2 2 2 3 3 3 3 3 3 3 3
3 3 4 5 6 5 4 4 3 2 2 3 3 2 2 2 2 2 2 2 2 1 1 1 1 1 1 1 1 1 2 2 3 3 3 3 3 3
4 3 3 3 4 5 5 5 5 5 4 4 3 4 4 3 2 2 2 1 2 1 1 2 1 1 1 1 1 1 1 2 2 2 3 3 3 3
4 3 3 2 2 2 2 2 3 4 5 5 4 5 4 4 3 3 2 2 2 1 1 2 1 2 2 1 2 2 2 2 2 3 3 3 3 3
3 3 3 2 2 2 2 1 1 1 3 3 4 4 4 3 4 3 3 2 1 1 2 2 1 2 2 2 2 2 2 2 2 2 2 2 2 2
2 2 3 3 3 3 2 2 1 1 1 1 1 1 1 2 2 2 1 1 1 1 1 1 1 1 1 2 2 2 2 2 2 2 2 2 2 2
1 1 2 3 2 3 3 3 2 2 1 1 1 2 1 1 2 2 3 2 1 1 1 1 1 1 1 1 1 2 2 2 2 3 3 2 2 1
2 2 1 2 2 3 3 2 2 1 1 1 1 1 1 1 1 0 1 2 2 2 1 2 1 1 1 1 1 1 1 1 1 2 2 3 2 2
3 2 2 3 3 3 2 2 2 2 2 2 1 1 1 1 1 1 1 2 2 3 2 2 2 2 2 2 2 1 1 1 1 1 2 2 2 3
2 3 3 4 4 3 3 3 3 2 2 1 0 1 1 1 1 1 1 1 1 1 1 2 2 2 2 2 2 2 2 2 1 1 2 2 1 1
2 3 4 5 4 3 3 2 1 1 1 1 0 1 1 1 1 1 1 1 1 1 1 1 2 2 2 2 2 2 2 2 1 2 2 2 2 2
3 2 2 2 2 1 1 1 1 1 1 0 0 0 0 1 1 1 1 0 0 1 2 2 1 1 1 2 2 2 2 2 2 2 2 2 2 2
5 3 2 2 2 2 2 1 1 1 1 1 1 1 1 0 0 0 0 0 1 1 2 2 1 1 0 1 2 3 2 2 2 2 2 2 3 2
4 3 3 3 2 2 2 2 2 1 1 2 1 1 1 1 0 0 0 0 1 2 2 1 1 1 2 2 1 2 3 2 2 2 2 2 3 3
2 3 3 3 3 3 2 2 2 1 1 2 2 2 1 1 1 1 1 1 1 1 1 1 1 1 2 3 2 2 3 2 2 2 2 2 3 3
3 3 3 3 3 3 3 3 2 2 2 2 2 2 2 2 1 1 1 1 1 1 2 2 2 3 2 1 2 2 2 3 3 2 2 2 2 2
3 3 3 3 3 3 3 3 2 2 2 2 2 2 2 2 2 2 2 2 2 2 2 2 2 1 1 1 2 3 3 3 3 3 3 3 3 3
3 3 3 3 3 3 3 3 3 2 2 2 2 2 2 2 2 2 2 2 1 1 2 2 1 1 1 2 2 2 3 3 2 2 2 3 4 5
Wind_Direction
222 215 222 228 217 214 203 192 191 248 277 270 276 297 279 270 282 286 287 303 285 273 274 268 261 259 260 258 256 257 255 248 244 244 246 246 252 256
221 218 226 227 217 211 208 209 206 211 248 254 255 279 288 294 298 282 288 300 290 277 267 266 267 262 254 261 260 255 239 231 237 244 248 244 246 253
225 220 229 220 214 214 208 207 210 204 236 266 261 275 276 289 308 302 289 278 284 273 262 256 271 278 262 233 232 237 243 242 241 247 252 251 250 252
222 217 226 217 216 217 212 215 216 211 216 251 267 266 263 275 285 289 293 280 270 270 258 243 243 257 252 231 227 232 235 242 254 261 266 266 264 260
214 212 220 210 223 223 216 217 218 216 211 227 258 255 258 269 283 289 294 294 285 291 267 236 238 262 263 237 234 236 235 240 245 255 271 277 276 273
214 215 217 215 222 220 218 216 208 206 203 220 246 258 259 266 251 260 283 287 301 307 320 315 331 298 272 246 238 239 244 249 250 250 257 266 270 273
216 223 227 221 222 221 217 209 201 205 208 226 242 254 254 248 248 248 259 284 289 265 278 285 294 305 305 275 245 234 244 247 246 249 253 260 264 269
213 230 235 224 226 223 218 210 201 203 210 217 230 238 246 242 239 237 232 242 268 247 246 280 241 266 287 294 309 278 264 260 247 243 250 262 266 267
208 217 230 225 216 214 208 211 221 222 211 208 221 233 237 229 218 228 234 236 244 246 218 257 272 270 284 299 306 295 277 257 254 252 251 258 259 260
201 206 211 223 220 186 185 208 251 266 243 220 219 234 237 225 212 217 216 218 255 245 209 232 255 271 289 288 285 269 269 267 261 263 260 266 267 260
212 208 205 213 211 165 162 189 233 284 293 204 211 235 218 182 162 147 155 173 247 264 203 226 250 289 287 281 298 300 280 273 275 277 261 253 254 253
207 214 210 208 197 173 173 180 207 251 264 0 29 26 61 86 130 168 173 174 205 248 196 208 212 257 274 278 307 312 303 280 270 268 266 256 239 235
196 206 212 181 168 173 173 182 213 215 153 107 71 52 62 58 55 159 193 188 202 232 200 192 204 221 250 284 299 295 290 293 289 275 262 264 240 219
191 196 181 146 134 137 148 135 123 113 101 88 70 46 34 358 329 310 253 236 237 239 223 203 201 207 215 246 271 295 304 299 292 294 298 288 250 235
175 157 145 131 123 120 120 122 122 118 114 118 110 297 287 289 318 338 321 281 268 274 228 221 215 205 216 229 249 268 292 295 282 302 312 292 270 255
148 122 114 104 103 101 96 95 114 132 145 165 238 281 308 359 18 8 336 340 333 332 334 272 236 212 220 234 235 257 269 273 294 306 303 286 278 261
133 112 101 105 109 103 102 110 131 141 163 197 206 226 346 5 354 349 330 350 333 320 334 346 350 338 258 236 241 252 262 274 278 287 285 286 277 275
127 132 150 164 170 175 181 183 176 192 208 200 194 195 214 247 317 2 9 349 326 319 320 327 324 337 330 285 242 260 273 277 283 281 272 273 281 283
140 166 181 188 198 199 199 199 206 210 200 189 188 195 196 197 207 287 304 308 310 306 313 321 327 300 282 291 290 235 263 282 284 275 267 264 273 284
171 189 201 202 201 202 203 203 204 193 186 192 195 197 192 187 192 233 254 266 274 282 301 314 299 276 263 280 293 299 270 266 267 270 275 274 275 278
199 205 208 205 205 204 203 202 201 200 199 196 202 206 201 193 209 233 251 273 263 272 281 291 297 300 278 257 276 293 305 287 273 262 264 272 284 281
205 211 219 217 209 202 198 196 199 206 203 203 212 213 209 205 215 227 235 243 253 266 282 305 331 325 260 260 283 298 309 322 313 291 266 258 268 267
215 215 217 217 212 206 200 197 198 206 208 210 214 213 209 216 224 225 229 238 258 276 289 301 315 303 281 269 280 294 304 316 320 315 313 311 280 275